Home   Weather   Santa Rosa   Past weeks
Flag for USA

Past Weather in Santa Rosa, California, USA — Yesterday and Last 2 Weeks

Now
69 °F

Scattered clouds.


Feels Like: 69 °F
Forecast: 80 / 52 °F
Wind: 3 mph from North

Location: Santa Rosa Sonoma County Airport

Current Time: Jul 21, 2019 at 12:29:19 pm

Latest Report: Jul 21, 2019 at 11:53 am


Visibility: 10 mi

Pressure: 29.93 "Hg

Humidity: 63%

Dew Point: 56 °F

Location of Santa RosaLocation

Past Weather in Santa Rosa — Graph

°F

Santa Rosa Temperature Yesterday

Maximum temperature yesterday: 73 °F (at 4:53 pm)
Minimum temperature yesterday: 54 °F (at 11:53 pm)
Average temperature yesterday: 61 °F

High & Low Weather Summary for the Past Weeks

 TemperatureHumidityPressure
High93 °F (Jul 15, 3:53 pm)100% (Jul 8, 4:39 am)30.09 "Hg (Jul 8, 4:39 am)
Low50 °F (Jul 9, 5:53 am)16% (Jul 16, 1:53 pm)29.78 "Hg (Jul 16, 5:53 pm)
Average65 °F72%29.91 "Hg
* Reported Jul 6 10:53 am — Jul 21 10:53 am, Santa Rosa. Weather by CustomWeather, © 2019

Note: Actual official high and low records may vary slightly from our data, if they occured in-between our weather recording intervals... More about our weather records

Advertising

Santa Rosa Weather History for the Previous 24 Hours

Scroll right to see more
 ConditionsComfort  
Time TempWeatherWind HumidityBarometerVisibility
10:53 am
Sun, Jul 21
62 °FBroken clouds.3 mph78%29.94 "Hg10 mi
10:21 am59 °FBroken clouds.3 mph84%29.97 "Hg10 mi
9:53 am58 °FPartly sunny.No wind84%29.94 "Hg10 mi
9:05 am54 °FLow clouds.No wind97%29.96 "Hg9 mi
8:53 am55 °FLow clouds.No wind93%29.94 "Hg9 mi
7:53 am53 °FFog.No wind96%29.93 "Hg2 mi
7:03 am53 °FFog.No wind96%29.94 "Hg2 mi
5:53 am52 °FFog.No wind100%29.90 "Hg3 mi
5:38 am52 °FFog.No wind100%29.92 "Hg2 mi
4:53 am52 °FLow clouds.3 mph100%29.90 "Hg9 mi
3:53 am52 °FFog.3 mph100%29.89 "Hg4 mi
2:53 am53 °FLow clouds.3 mph96%29.89 "Hg7 mi
1:53 am53 °FLow clouds.No wind100%29.89 "Hg8 mi
12:53 am54 °FLow clouds.3 mph97%29.89 "Hg10 mi
12:06 am54 °FLow clouds.3 mph97%29.91 "Hg10 mi
11:53 pm
Sat, Jul 20
54 °FLow clouds.5 mph97%29.89 "Hg10 mi
11:12 pm55 °FLow clouds.6 mph93%29.91 "Hg10 mi
10:53 pm55 °FLow clouds.6 mph93%29.89 "Hg10 mi
10:35 pm55 °FPassing clouds.5 mph93%29.91 "Hg10 mi
9:53 pm56 °FClear.7 mph90%29.89 "Hg10 mi
8:53 pm58 °FClear.9 mph84%29.87 "Hg10 mi
7:53 pm63 °FSunny.10 mph75%29.86 "Hg10 mi
6:53 pm67 °FPassing clouds.10 mph68%29.86 "Hg10 mi
5:53 pm71 °FSunny.12 mph61%29.86 "Hg10 mi
4:53 pm73 °FSunny.13 mph57%29.88 "Hg10 mi
3:53 pm72 °FSunny.10 mph59%29.89 "Hg10 mi
2:53 pm72 °FSunny.8 mph59%29.90 "Hg10 mi
1:53 pm69 °FPassing clouds.N/A66%29.92 "Hg10 mi
12:53 pm67 °FPartly sunny.7 mph68%29.93 "Hg10 mi
12:00 pm63 °FPartly sunny.3 mph75%29.97 "Hg10 mi
Weather by CustomWeather, © 2019

See weather overview